Regional Weather Roundup
Issued by NWS

Home | Current Version | Previous Version | Graphics & Text | Print | Product List | Glossary Off
Versions: 1 2 3 4 5 6 7 8 9 10 11 12 13 14 15 16 17 18 19 20 21 22 23 24 25 26 27 28 29 30 31 32 33 34 35 36 37 38 39 40 41 42 43 44 45 46 47 48 49 50

000
ASUS43 KDMX 251203
RWRIA

WEATHER ROUNDUP FOR IOWA
NATIONAL WEATHER SERVICE DES MOINES IA
700 AM CDT WED MAY 25 2016

NOTE: "FAIR" INDICATES FEW OR NO CLOUDS BELOW 12,000 FEET WITH NO
SIGNIFICANT WEATHER AND/OR OBSTRUCTIONS TO VISIBILITY.

* - THESE STATIONS ARE NOT NWS STATIONS...THUS NOT UNDER NWS
QUALITY CONTROL.  THEY ALSO DO NOT REPORT WEATHER SUCH
AS PRECIPITATION OR FOG.

IAZ001>003-012>014-020>022-031>034-043>046-251300-
   NORTHWEST IOWA

CITY           SKY/WX    TMP DP  RH WIND       PRES   REMARKS
CARROLL *      CLOUDY    64  64 100 E12G18    29.85F
CHEROKEE *     CLOUDY    64  63  98 E8        29.85F
DENISON *      MOSUNNY   63  61  94 N5        29.84S
LE MARS *      CLOUDY    66  61  82 SE6       29.85R
ORANGE CITY *  PTSUNNY   64  63  94 SE6       29.83F
SHELDON *      CLOUDY    64  64 100 SE10      29.83F
SIOUX CITY     LGT RAIN  65  60  84 SW5       29.84R
6HR MIN TEMP:  64; 6HR MAX TEMP:  71; 6HR PCP: TRACE;

SPENCER        LGT RAIN  65  61  87 CALM      29.89R
6HR MIN TEMP:  64; 6HR MAX TEMP:  66; 6HR PCP:  0.05;

STORM LAKE *   MOSUNNY   64  61  88 W13       29.89R
$$

IAZ055>058-069>071-079>083-090>094-251300-
   SOUTHWEST IOWA

CITY           SKY/WX    TMP DP  RH WIND       PRES   REMARKS
ATLANTIC *     LGT RAIN  66  64  94 E10       29.88R
AUDUBON *      LGT RAIN  64  61  88 SE3       29.89R
CLARINDA *       N/A     66  63  88 MISG      29.91R
COUNCIL BLFS * MOSUNNY   63  63 100 SE3       29.86R
CRESTON *      CLOUDY    64  64 100 NE8       29.89R
HARLAN  *        N/A    N/A N/A N/A MISG        N/A
LAMONI         PTSUNNY   64  63  96 NE5       29.87R
6HR MIN TEMP:  64; 6HR MAX TEMP:  66;

RED OAK *      CLOUDY    66  63  88 CALM      29.89R
SHENANDOAH *   MOSUNNY   66  63  88 SW8       29.88R
$$

IAZ047>049-059>061-072>074-084-251300-
   CENTRAL IOWA

CITY           SKY/WX    TMP DP  RH WIND       PRES   REMARKS
AMES           LGT RAIN  65  64  97 N6        29.86F FOG
6HR MIN TEMP:  63; 6HR MAX TEMP:  66; 6HR PCP:  0.08;

ANKENY *       CLOUDY    64  64 100 CALM      29.87S FOG
BOONE *        RAIN      64  64 100 E8        29.87F
CHARITON *     PTSUNNY   64  64 100 E12       29.85F
DES MOINES     TSTM      66  62  87 NE12      29.84F FOG
6HR MIN TEMP:  65; 6HR MAX TEMP:  69; 6HR PCP:  0.36;

GRINNELL*      RAIN      63  61  93 SE8       29.92S
KNOXVILLE *    CLOUDY    66  63  88 SE6       29.87F
MARSHALLTOWN   TSTM      65  63  93 W3        29.92S FOG
6HR MIN TEMP:  62; 6HR MAX TEMP:  67; 6HR PCP:  0.04;

NEWTON *       CLOUDY    64  64 100 SE6       29.91F FOG
PELLA *        CLOUDY    64  63  97 E3        29.91F FOG
PERRY *        PTSUNNY   66  64  94 SW3       29.87F
$$

IAZ004>006-015-016-023>025-035-036-251300-
   NORTH CENTRAL IOWA

CITY           SKY/WX    TMP DP  RH WIND       PRES   REMARKS
ALGONA *       CLOUDY    66  64  94 SE10      29.90S FOG
CLARION *      LGT RAIN  66  66 100 S12G18    29.93R
ESTHERVILLE    RAIN      64  62  93 S10       29.89R FOG
6HR MIN TEMP:  61; 6HR MAX TEMP:  64; 6HR PCP:  0.01;

FORT DODGE *   CLOUDY    64  61  88 SE5       29.90F
MASON CITY     RAIN      63  62  97 S8        29.95R FOG
6HR MIN TEMP:  59; 6HR MAX TEMP:  63; 6HR PCP:  0.03;

FOREST CITY *  CLOUDY    63  63 100 S9        29.92R
WEBSTER CITY * LGT RAIN  64  64 100 CALM      29.87F
IOWA FALLS *   RAIN      65  64  93 S7        29.95R
$$

IAZ007>011-017>019-026>030-037>042-050>054-066-251300-
   NORTHEAST IOWA

CITY           SKY/WX    TMP DP  RH WIND       PRES   REMARKS
CEDAR RAPIDS   CLOUDY    64  64 100 SE8       29.92S
6HR MIN TEMP:  62; 6HR MAX TEMP:  67;

CHARLES CITY * SUNNY     64  64 100 SE9       29.93R
CLINTON *      MOSUNNY   67  63  87 SE9       29.99R
DECORAH *      CLOUDY    64  63  94 CALM      29.93R
DUBUQUE        CLOUDY    65  63  93 S9        29.97R
6HR MIN TEMP:  61; 6HR MAX TEMP:  68;

MONTICELLO *   CLOUDY    64  63  94 SE7       29.95R
OELWEIN *      CLOUDY    66  64  94 SE10      29.95R
WATERLOO       CLOUDY    66  62  87 S10       29.93R
6HR MIN TEMP:  63; 6HR MAX TEMP:  69;

$$

IAZ064-065-067-068-078-251300-
   EAST CENTRAL IOWA

CITY           SKY/WX    TMP DP  RH WIND       PRES   REMARKS
DAVENPORT      CLOUDY    67  62  84 S8        29.98R
6HR MIN TEMP:  61; 6HR MAX TEMP:  71;

IOWA CITY      CLOUDY    65  62  90 SE8       29.94S
6HR MIN TEMP:  62; 6HR MAX TEMP:  68;

MT. PLEASANT * LGT RAIN  66  66 100 S9        29.95R
MUSCATINE *    CLOUDY    66  63  88 SE5       29.94F
QUAD CITIES    CLOUDY    68  62  81 CALM      29.96R
6HR MIN TEMP:  63; 6HR MAX TEMP:  70;

$$

IAZ062-063-075>077-085>089-095>099-251300-
   SOUTHEAST IOWA

CITY           SKY/WX    TMP DP  RH WIND       PRES   REMARKS
BURLINGTON     CLOUDY    64  63  96 S8        29.95R
6HR MIN TEMP:  61; 6HR MAX TEMP:  67;

FAIRFIELD *      N/A    N/A N/A N/A MISG        N/A
FORT MADISON * CLOUDY    64  63  94 S10       29.97R
KEOKUK *       CLOUDY    66  63  88 S7        29.95R
OSKALOOSA *    CLOUDY    64  63  94 S5        29.93R
OTTUMWA        CLOUDY    64  62  93 S12       29.92R
6HR MIN TEMP:  63; 6HR MAX TEMP:  67; 6HR PCP: TRACE;

WASHINGTON *   PTSUNNY   64  64 100 S9        29.95R
$$

ABBREVIATIONS USED IN REMARKS
   TC - TEMPERATURES IN CELSIUS
  WCI - WIND CHILL INDEX
   HX - HEAT INDEX
  VSB - VISIBILITY
$$




USA.gov is the U.S. government's official web portal to all federal, state and local government web resources and services.